Regional Weather Roundup
Issued by NWS

Home | Current Version | Previous Version | Graphics & Text | Print | Product List | Glossary On
Versions: 1 2 3 4 5 6 7 8 9 10 11 12 13 14 15 16 17 18 19 20 21 22 23 24 25 26 27 28 29 30 31 32 33 34 35 36 37 38 39 40 41 42 43 44 45 46 47 48 49 50
000
ASUS43 KIND 292309
RWRIN

WEATHER ROUNDUP FOR INDIANA
NATIONAL WEATHER SERVICE INDIANAPOLIS IN
700 PM EDT SAT AUG 29 2015

NOTE: "FAIR" INDICATES FEW OR NO CLOUDS BELOW 12,000 FEET WITH NO
SIGNIFICANT WEATHER AND/OR OBSTRUCTIONS TO VISIBILITY.

* - STATION DOES NOT REPORT WEATHER SUCH AS PRECIPITATION OR FOG.

+ - STATION NOT QUALITY CONTROLLED BY THE NATIONAL WEATHER SERVICE.
    USE DATA WITH CAUTION...ESPECIALLY DEWPOINT AND RELATIVE
    HUMIDITY OBSERVATIONS.

INZ001>003-010>013-019-020-300000-
NORTHWEST INDIANA

CITY           SKY/WX    TMP DP  RH WIND       PRES   REMARKS
GARY /AIRPORT/ CLOUDY    75  66  73 CALM      30.00S
KNOX *+        CLOUDY    70  70 100 CALM      30.01R
LA PORTE +     LGT RAIN N/A N/A N/A CALM      30.02S
MICHIGAN CITY+ DRIZZLE   70  68  94 CALM      30.02S
MONTICELLO +   HVY RAIN  76  71  84 SW6       30.01R
RENSSELAER +   CLOUDY    73  72  94 CALM      30.00R
VALPARAISO     CLOUDY    72  69  90 CALM      30.02R

$$

LMZ046-743>745-300000-
SOUTHERN LAKE MICHIGAN

STATION/POSITION TIME  TEMP    WIND        PRES    WAVE
                       AIR SEA DIR/SP/G            HT
                 (UTC) (F)     (DEG/KT/KT) (MB)    (FT)
BURNS HARBOR     2200   73     180/  5/  8 1016.3S
MICHIGAN CITY    2200   71     110/  5/  6   N/A
5NW MICH CITY    2300   71 71  150/  4/  6   N/A     0

$$

INZ004-005-014>016-021>024-300000-
NORTH CENTRAL INDIANA

CITY           SKY/WX    TMP DP  RH WIND       PRES   REMARKS
GOSHEN         CLOUDY    70  68  93 E5        30.04S FOG
LOGANSPORT +   CLOUDY    77  64  65 S3        30.03R
PERU/GRISSOM   PTSUNNY   78  68  72 S6        30.01S
ROCHESTER +    LGT RAIN  73  72  94 CALM      30.03S
SOUTH BEND     LGT RAIN  69  68  96 E7        30.03S FOG
WARSAW +       DRIZZLE   72  70  94 CALM      30.03S

$$

INZ006>009-017-018-025>027-300000-
NORTHEAST INDIANA

CITY           SKY/WX    TMP DP  RH WIND       PRES   REMARKS
ANGOLA *+      MOSUNNY   72  63  73 E5        30.05S
AUBURN +       LGT RAIN  72  68  88 CALM      30.05S
FORT WAYNE     LGT RAIN  75  70  84 CALM      30.04S
HUNTINGTON +   DRIZZLE   75  67  76 SE3       30.02F

$$

INZ028-029-035-036-043>045-051>053-300000-
WEST CENTRAL INDIANA

CITY           SKY/WX    TMP DP  RH WIND       PRES   REMARKS
CRAWFORDSVL +  CLOUDY    74  66  75 S6        30.02S
GREENCASTLE +  CLOUDY    75  64  69 S3        30.04S
LAFAYETTE      CLOUDY    76  69  79 S6        30.00S
TERRE HAUTE    CLOUDY    80  67  64 S7        30.01F

$$

INZ030>032-037>040-046>048-054>057-064-065-300000-
CENTRAL INDIANA

CITY           SKY/WX    TMP DP  RH WIND       PRES   REMARKS
FRANKFORT +    CLOUDY   N/A N/A N/A CALM      30.04S
GREENWOOD *+   CLOUDY    79  64  61 SW5       30.04F
INDIANAPOLIS   CLOUDY    80  66  62 S12       30.02S
-EAGLE CREEK   CLOUDY    79  68  69 S6        30.02S
KOKOMO *+      CLOUDY    77  68  73 S3        30.03R
MARION +       CLOUDY    77  58  52 S3        30.03F
MT COMFORT *+  CLOUDY    79  64  61 S7        30.04S
SHELBYVILLE    CLOUDY    81  66  60 SW6       30.03F
ZIONSVILLE +   CLOUDY    78  66  67 CALM      30.04S

$$

INZ033-034-041-042-049-050-058-059-300000-
EAST CENTRAL INDIANA

CITY           SKY/WX    TMP DP  RH WIND       PRES   REMARKS
MUNCIE         CLOUDY    77  66  68 SW6       30.04S

$$

INZ060-061-067>069-081>083-085>088-300000-
SOUTHWEST INDIANA

CITY           SKY/WX    TMP DP  RH WIND       PRES   REMARKS
EVANSVILLE     PTSUNNY   83  70  64 CALM      30.02S
HUNTINGBURG *+ PTSUNNY   82  70  65 NW5       30.03S
WASHINGTON +   CLOUDY    80  63  55 CALM      30.01F

$$

INZ062-063-066-070>080-084-089>092-300000-
SOUTH CENTRAL AND SOUTHEAST INDIANA

CITY           SKY/WX    TMP DP  RH WIND       PRES   REMARKS
BLOOMINGTON    CLOUDY    79  69  71 SW5       30.04S
MADISON *+     PTSUNNY   79  68  69 CALM      30.07S
NORTH VERNON + CLOUDY    81  68  65 S3        30.05S
SEYMOUR +      CLOUDY    82  68  61 CALM      30.03S

$$



USA.gov is the U.S. government's official web portal to all federal, state and local government web resources and services.